Regional Weather Roundup
Issued by NWS

Home | Current Version | Previous Version | Text Only | Print | Product List | Glossary On
Versions: 1 2 3 4 5 6 7 8 9 10 11 12 13 14 15 16 17 18 19 20 21 22 23 24 25 26 27 28 29 30 31 32 33 34 35 36 37 38 39 40 41 42 43 44 45 46 47 48 49 50
000
ASCA44 KEWX 210220
RWRMX

LATIN AMERICA AND CARIBBEAN REGIONAL WEATHER ROUNDUP
NATIONAL WEATHER SERVICE AUSTIN/SAN ANTONIO TX
900 PM CDT FRI OCT 20 2017

NOTE: "FAIR" INDICATED FEW OR NO CLOUDS BELOW 12,000 FEET WITH NO
SIGNIFICANT WEATHER AND/OR OBSTRUCTIONS TO VISIBILITY.

BAJA CALIFORNIA

CITY           SKY/WX    TMP DP  RH WIND       PRES   REMARKS
LORETO           N/A    N/A N/A N/A MISG        N/A
LA PAZ         CLEAR    N/A N/A N/A CALM      29.81R
MEXICALI       PTCLDY    73  45  35 SW14      29.76R
S.J. DEL CABO  CLEAR     86  64  48 NW7       29.82R
TIJUANA        MOCLDY    63  54  72 W7        29.99

NORTHWESTERN MEXICO

CITY           SKY/WX    TMP DP  RH WIND       PRES   REMARKS
CULIACAN       MOCLDY    82  68  61 CALM      29.82F
DURANGO        CLEAR     64  43  45 S7        30.16R
GUAYMAS        CLEAR     84  55  37 SW7       29.73S
HERMOSILLO     PTCLDY    86  59  39 SW10      29.82R
CD. JUAREZ     PTCLDY    77  36  22 SW8       29.89R
LOS MOCHIS     CLEAR     84  73  70 S10       29.81R HX  91
OBREGON        CLEAR     82  68  61 S6        29.76R

NORTHEASTERN MEXICO

CITY           SKY/WX    TMP DP  RH WIND       PRES   REMARKS
CHIHUAHUA      PTCLDY    73  36  25 W5        29.97R
MATAMOROS        N/A    N/A N/A N/A MISG        N/A
MONCLOVA         N/A    N/A N/A N/A MISG        N/A
MONTERREY      CLEAR     73  63  68 NE3       29.89R
NUEVO LAREDO     N/A    N/A N/A N/A MISG        N/A
PIEDRAS NEGRAS   N/A    N/A N/A N/A MISG        N/A
SALTILLO       CLEAR     61  46  59 CALM      30.12R
TORREON        CLEAR     84  50  30 N3        29.93
CD. VICTORIA     N/A    N/A N/A N/A MISG        N/A

WESTERN MEXICO

CITY           SKY/WX    TMP DP  RH WIND       PRES   REMARKS
AGUASCALIENTES PTCLDY    72  50  46 SW2       30.18R
COLIMA         MOCLDY    75  73  94 CALM      29.97R
DEL BAJIO      PTCLDY    68  50  52 NE8       30.22R
GUADALAJARA    CLEAR     68  54  60 CALM      30.12R
MANZANILLO     PTCLDY    84  75  74 W7        29.81  HX  92
MAZATLAN       PTCLDY    82  79  89 W3        29.84R HX  93
P. VALLARTA    PTCLDY    84  81  89 CALM      29.83R HX  98
ZACATECAS      PTCLDY    63  45  51 CALM      30.22

CENTRAL MEXICO

CITY           SKY/WX    TMP DP  RH WIND       PRES   REMARKS
CUERNAVACA       N/A    N/A N/A N/A MISG        N/A
MEXICO CITY    PTCLDY    68  37  32 NE12      30.29R
MORELIA        PTCLDY    66  61  82 SW3       30.18R
POZA RICA        N/A    N/A N/A N/A MISG        N/A
PUEBLA         PTCLDY    59  48  67 NE5       30.29R
QUERETARO      PTCLDY    68  48  49 SE6       30.23R
S. LUIS POTOSI PTCLDY    66  48  52 CALM      30.17
TAMPICO        CLEAR     77  72  83 MISG      29.89R
TOLUCA         MOCLDY    59  50  72 SE3       30.36

SOUTHERN MEXICO

CITY           SKY/WX    TMP DP  RH WIND       PRES   REMARKS
ACAPULCO       MOCLDY    84  77  79 W7        29.80R HX  94
B. DE HUATULCO   N/A    N/A N/A N/A MISG        N/A
OAXACA         MOCLDY    64  59  82 W6        30.15R
P. ESCONDIDO   PTCLDY    68  48  49 SE6       30.23
VERACRUZ       CLEAR     77  75  94 N5        29.90R
ZIHUATANEJO    TSTM      82  73  74 N7        29.82

YUCATAN PENINSULA

CITY           SKY/WX    TMP DP  RH WIND       PRES   REMARKS
CAMPECHE       PTCLDY    79  75  89 E12       29.89R
CANCUN         CLOUDY    79  79 100 NE3       29.94R
CHETUMAL       CLOUDY    75  73  94 CALM      29.93R
CD. DEL CARMEN   N/A    N/A N/A N/A MISG        N/A
COZUMEL        CLOUDY    79  75  89 E3        29.92R
MERIDA         MOCLDY    73  72  94 CALM      29.92R
MINATITLAN       N/A    N/A N/A N/A MISG        N/A
TAPACHULA      PTCLDY    77  73  88 CALM      29.81R
TUX. GUTIERREZ PTCLDY    77  70  78 W9        29.90R
VILLAHERMOSA   CLOUDY    79  79 100 NE5       29.90R

CENTRAL AMERICA

CITY           SKY/WX    TMP DP  RH WIND       PRES   REMARKS
MANAGUA        PTCLDY    77  75  94 CALM      29.77S

CARIBBEAN

CITY           SKY/WX    TMP DP  RH WIND       PRES   REMARKS
ARUBA          PTCLDY    84  75  74 E22       29.83R HX  92
CURACAO        PTCLDY    82  73  74 E20       29.86R
KINGSTON       PTCLDY    84  75  74 NE5       29.86R HX  92
NASSAU         PTCLDY    82  73  74 NE12      30.01R
SAN JUAN       RAIN      79  75  89 E9        30.02R FOG
SANTO DOMINGO  PTCLDY    77  73  88 NE7       29.97R

$$





USA.gov is the U.S. government's official web portal to all federal, state and local government web resources and services.